PHKOPHOG

Guest
Details From PHKO - Kona Intl At Keahole
To PHOG - Kahului
Flight Number -
Tags generated
Created
Modified
Stats Distance 73 nm / 135 km
Max Altitude 1,700 ft / 518 m
Waypoints 3
Social Downloads 2
Likes 0
Share VATSIM

Download

Looking for another format? Having issues loading an existing format? Contact us
Advertisement - Login to hide

Notes

Basic altitude profile: - Ascent Rate: 2500ft/min - Ascent Speed: 250kts - Cruise Altitude: 60ft - Cruise Speed: 420kts - Descent Rate: 1500ft/min - Descent Speed: 250kts Options: - Use NATs: yes - Use PACOTS: yes - Use low airways: yes - Use high airways: yes

Route

PHKO MYNAH PHOG

ID Type Via Altitude Latitude Longitude Leg Dist Tot Dist Heading (true) Name
O PHKO APT - 0 ft / 0 m 19.73934˚ -156.04576˚ - 0 nm - Kona Intl At Keahole
MYNAH FIX - 1,700 ft / 518 m 19.81189˚ -156.08586˚ 4 nm 4 nm 333° / 333° -
O PHOG APT - 0 ft / 0 m 20.89897˚ -156.43046˚ 68 nm 73 nm 344° / 343° Kahului

Altitude Profile

Advertisement - Login to hide

PHKO

Details ICAO PHKO (KOA)
Name Kona Intl At Keahole
Region USA (Hawaii)
Timezone Pacific/Honolulu (UTC-10.0)
Stats Elevation 45 ft / 14 m (AMSL)
Location 19.739343° -156.045756°
Runways 1
Magnetic Variation 9.423° E

METAR

PHKO 211853Z 21005KT 8SM FEW055 27/20 A3003

Decode

TAF

PHKO 211730Z 2118/2218 14006KT P6SM SCT050 FM211900 24009KT P6SM SCT060 FM220600 12005KT P6SM BKN060

Decode

Departure Runways

ID Width Length Bearing (true) Bearing (mag) Surface Threshold Offset Overrun Length
17 150 ft / 46 m 11,461 ft / 3,493 m 184.77° 175.35° Asphalt 407 ft / 124 m 0 ft / 0 m
35 150 ft / 46 m 11,461 ft / 3,493 m 4.77° 355.35° Asphalt 0 ft / 0 m 404 ft / 123 m

PHOG

Details ICAO PHOG (OGG)
Name Kahului
Region USA (Hawaii)
Timezone Pacific/Honolulu (UTC-10.0)
Stats Elevation 54 ft / 16 m (AMSL)
Location 20.898975° -156.430460°
Runways 2
Magnetic Variation 9.515° E

METAR

PHOG 211854Z 05017G23KT 10SM FEW028 25/20 A3009

Decode

TAF

PHOG 211730Z 2118/2218 05011KT P6SM FEW020 SCT045 FM211900 05018G26KT P6SM FEW025 SCT050 FM220600 06013KT P6SM FEW025 SCT050

Decode

Destination Runways

ID Width Length Bearing (true) Bearing (mag) Surface Threshold Offset Overrun Length
02 150 ft / 46 m 7,013 ft / 2,138 m 34.81° 25.30° Asphalt 0 ft / 0 m 0 ft / 0 m
05 150 ft / 46 m 4,989 ft / 1,521 m 64.91° 55.40° Asphalt 0 ft / 0 m 0 ft / 0 m
20 150 ft / 46 m 7,013 ft / 2,138 m 214.81° 205.30° Asphalt 0 ft / 0 m 0 ft / 0 m
23 150 ft / 46 m 4,989 ft / 1,521 m 244.91° 235.40° Asphalt 0 ft / 0 m 0 ft / 0 m

Approach Navaids

Runway Type Ident Frequency Range Bearing (true) Bearing (mag) Slope Elevation
02 Localiser IOGG 110.10 MHz 18 nm / 33 km 34.81° 25.30° - 46 ft / 14 m (AMSL)
02 Glidescope IOGG 110.10 MHz 10 nm / 19 km 34.81° 25.30° 3.00° 46 ft / 14 m (AMSL)
02 DME IOGG 110.10 MHz 18 nm / 33 km - - - 46 ft / 14 m (AMSL)

Popular Alternatives